Date String (YYYY-MM-DD hh:mm:ss) UTC,Instrument flags,Ambient pressure (hPa),Sample flow (lpm),Bypass flow (lpm),Sample temperature (°C),Ambient temperature (°C),ASC tube jacket temperature (°C),LED temperature (°C),Box temperature (°C),Sample RH (%),Span deviation,Mass concentration (μg/m³),Mass concentration (μg/m³),Mass concentration (μg/m³)
DateTimeUTC,F1_M11,P_M11,Q1_M11,Q2_M11,T1_M11,T2_M11,T3_M11,T4_M11,T5_M11,U1_M11,ZSPAN_M11,X0_M11,X2_M11,X1_M11
2022-03-31 20:00:00,,0817.4,5.02,0.00,26.9,26.2,00.0,35.7,28.7,06.1,0000.0,0008.75,0003.24,0001.35
2022-03-31 20:01:00,,0817.4,4.99,0.00,26.9,26.3,00.0,35.7,28.8,06.3,0000.0,0008.75,0003.23,0001.36
2022-03-31 20:02:00,,0817.3,4.99,0.00,26.9,26.3,00.0,35.7,28.8,06.5,0000.0,0008.72,0003.22,0001.37
2022-03-31 20:03:00,,0817.2,5.03,0.00,27.0,26.3,00.0,35.7,28.8,07.1,0000.0,0008.72,0003.22,0001.38
2022-03-31 20:04:00,,0817.2,4.99,0.00,27.0,26.3,00.0,35.8,28.8,06.5,0000.0,0008.40,0003.23,0001.38
2022-03-31 20:05:00,,0817.1,4.98,0.00,27.0,26.3,00.0,35.8,28.8,06.0,0000.0,0007.99,0003.22,0001.39
2022-03-31 20:06:00,,0817.2,5.00,0.00,27.0,26.3,00.0,35.8,28.9,06.3,0000.0,0008.04,0003.17,0001.38
2022-03-31 20:07:00,,0817.2,5.01,0.00,27.0,26.3,00.0,35.8,28.9,06.3,0000.0,0008.30,0003.19,0001.39
2022-03-31 20:08:00,,0817.2,4.99,0.00,27.0,26.3,00.0,35.8,28.9,06.5,0000.0,0008.29,0003.21,0001.41
2022-03-31 20:09:00,,0817.1,5.02,0.00,27.0,26.4,00.0,35.8,28.9,06.6,0000.0,0008.34,0003.18,0001.41
2022-03-31 20:10:00,,0817.1,4.98,0.00,27.0,26.4,00.0,35.9,28.9,06.2,0000.0,0008.84,0003.14,0001.42
2022-03-31 20:11:00,,0817.1,5.01,0.00,27.1,26.4,00.0,35.9,28.9,06.2,0000.0,0008.87,0003.15,0001.42
2022-03-31 20:12:00,,0817.2,4.99,0.00,27.1,26.4,00.0,35.9,28.9,06.1,0000.0,0008.84,0003.14,0001.42
2022-03-31 20:13:00,,0817.2,5.02,0.00,27.1,26.4,00.0,35.9,29.0,06.4,0000.0,0008.88,0003.16,0001.44
2022-03-31 20:14:00,,0817.1,4.99,0.00,27.1,26.4,00.0,35.9,29.0,06.3,0000.0,0008.84,0003.16,0001.45
2022-03-31 20:15:00,,0817.1,5.00,0.00,27.1,26.4,00.0,35.9,29.0,06.8,0000.0,0008.69,0003.12,0001.46
2022-03-31 20:16:00,,0817.1,5.01,0.00,27.1,26.4,00.0,36.0,29.0,06.5,0000.0,0009.20,0003.17,0001.48
2022-03-31 20:17:00,,0817.1,4.99,0.00,27.1,26.4,00.0,36.0,29.0,06.1,0000.0,0009.32,0003.22,0001.50
2022-03-31 20:18:00,,0817.1,4.99,0.00,27.1,26.4,00.0,36.0,29.0,06.2,0000.0,0008.51,0003.19,0001.51
2022-03-31 20:19:00,,0817.1,5.02,0.00,27.1,26.4,00.0,36.0,28.9,06.2,0000.0,0008.27,0003.13,0001.51
2022-03-31 20:20:00,,0817.1,4.99,0.00,27.1,26.4,00.0,36.0,28.9,06.2,0000.0,0008.27,0003.14,0001.54
2022-03-31 20:21:00,,0817.1,4.99,0.00,27.1,26.4,00.0,36.0,28.9,06.4,0000.0,0008.21,0003.17,0001.56
2022-03-31 20:22:00,,0817.0,5.00,0.00,27.1,26.3,00.0,36.0,28.9,05.9,0000.0,0008.15,0003.20,0001.58
2022-03-31 20:23:00,,0817.0,5.01,0.00,27.1,26.3,00.0,36.0,28.9,06.3,0000.0,0008.46,0003.25,0001.59
2022-03-31 20:24:00,,0817.0,4.99,0.00,27.1,26.3,00.0,36.0,28.9,06.1,0000.0,0008.97,0003.24,0001.59
2022-03-31 20:25:00,,0817.0,4.99,0.00,27.1,26.3,00.0,36.0,28.9,06.4,0000.0,0009.07,0003.26,0001.60
2022-03-31 20:26:00,,0816.9,5.01,0.00,27.1,26.3,00.0,36.0,28.9,06.5,0000.0,0009.15,0003.31,0001.62
2022-03-31 20:27:00,,0817.0,4.99,0.00,27.1,26.3,00.0,36.0,28.9,06.2,0000.0,0008.72,0003.32,0001.62
2022-03-31 20:28:00,,0817.1,5.00,0.00,27.1,26.3,00.0,36.0,28.9,06.3,0000.0,0008.71,0003.32,0001.62
2022-03-31 20:29:00,,0817.0,5.00,0.00,27.1,26.3,00.0,36.0,28.9,06.3,0000.0,0008.85,0003.38,0001.63
2022-03-31 20:30:00,,0816.9,4.99,0.00,27.1,26.3,00.0,36.0,28.9,06.4,0000.0,0008.97,0003.43,0001.65
2022-03-31 20:31:00,,0817.0,4.99,0.00,27.1,26.3,00.0,36.0,28.8,06.1,0000.0,0008.94,0003.44,0001.65
2022-03-31 20:32:00,,0817.3,5.02,0.00,26.9,26.0,00.0,36.0,28.5,06.4,0000.0,0008.32,0003.39,0001.64
2022-03-31 20:33:00,,0817.4,4.98,0.00,26.8,25.7,00.0,35.9,28.3,06.4,0000.0,0008.28,0003.31,0001.62
2022-03-31 20:34:00,,0817.0,5.01,0.00,26.7,25.4,00.0,35.9,28.2,06.2,0000.0,0008.23,0003.24,0001.61
2022-03-31 20:35:00,,0817.1,4.98,0.00,26.6,25.2,00.0,35.8,28.0,06.5,0000.0,0007.85,0003.24,0001.60
2022-03-31 20:36:00,,0816.8,5.02,0.00,26.5,25.0,00.0,35.8,27.9,06.9,0000.0,0007.99,0003.25,0001.60
2022-03-31 20:37:00,,0817.0,4.99,0.00,26.4,25.0,00.0,35.7,27.9,06.2,0000.0,0008.55,0003.25,0001.59
2022-03-31 20:38:00,,0816.8,5.00,0.00,26.3,24.9,00.0,35.7,27.7,06.3,0000.0,0008.59,0003.21,0001.60
2022-03-31 20:39:00,,0816.8,5.01,0.00,26.1,24.6,00.0,35.6,27.5,06.8,0000.0,0009.26,0003.20,0001.60
2022-03-31 20:40:00,,0816.8,5.00,0.00,26.1,24.6,00.0,35.5,27.5,07.1,0000.0,0009.51,0003.18,0001.58
2022-03-31 20:41:00,,0816.8,4.99,0.00,26.1,24.8,00.0,35.5,27.6,06.9,0000.0,0009.52,0003.15,0001.56
2022-03-31 20:42:00,,0816.8,5.02,0.00,26.1,24.9,00.0,35.5,27.8,07.3,0000.0,0009.44,0003.11,0001.55
2022-03-31 20:43:00,,0816.8,5.00,0.00,26.1,25.1,00.0,35.4,27.8,06.9,0000.0,0009.55,0003.15,0001.57
2022-03-31 20:44:00,,0816.8,4.99,0.00,26.2,25.2,00.0,35.4,27.9,06.8,0000.0,0009.56,0003.24,0001.58
2022-03-31 20:45:00,,0816.8,5.01,0.00,26.2,25.3,00.0,35.4,28.0,06.9,0000.0,0009.52,0003.34,0001.60
2022-03-31 20:46:00,,0816.8,5.00,0.00,26.2,25.4,00.0,35.4,28.0,07.0,0000.0,0009.94,0003.33,0001.61
2022-03-31 20:47:00,,0816.7,5.00,0.00,26.3,25.5,00.0,35.4,28.1,06.8,0000.0,0009.77,0003.31,0001.63
2022-03-31 20:48:00,,0816.7,4.99,0.00,26.3,25.6,00.0,35.4,28.2,06.6,0000.0,0009.31,0003.33,0001.64
2022-03-31 20:49:00,,0816.7,5.00,0.00,26.4,25.7,00.0,35.4,28.3,06.7,0000.0,0009.98,0003.29,0001.63
2022-03-31 20:50:00,,0816.7,5.00,0.00,26.4,25.8,00.0,35.4,28.3,06.9,0000.0,0009.52,0003.29,0001.64
2022-03-31 20:51:00,,0816.6,5.00,0.00,26.5,25.9,00.0,35.4,28.4,06.8,0000.0,0009.21,0003.27,0001.64
2022-03-31 20:52:00,,0816.6,5.02,0.00,26.5,25.9,00.0,35.4,28.4,06.9,0000.0,0009.26,0003.29,0001.65
2022-03-31 20:53:00,,0816.5,4.99,0.00,26.5,26.0,00.0,35.4,28.4,06.6,0000.0,0009.38,0003.31,0001.65
2022-03-31 20:54:00,,0816.6,5.00,0.00,26.6,26.0,00.0,35.4,28.4,06.9,0000.0,0009.87,0003.29,0001.65
2022-03-31 20:55:00,,0816.6,5.00,0.00,26.6,26.0,00.0,35.4,28.4,06.9,0000.0,0010.00,0003.25,0001.66
2022-03-31 20:56:00,,0816.7,4.99,0.00,26.6,26.1,00.0,35.5,28.4,06.4,0000.0,0010.37,0003.20,0001.66
2022-03-31 20:57:00,,0816.7,5.01,0.00,26.6,26.1,00.0,35.5,28.4,06.5,0000.0,0010.46,0003.25,0001.66
2022-03-31 20:58:00,,0816.6,5.00,0.00,26.6,26.1,00.0,35.5,28.4,06.5,0000.0,0010.99,0003.30,0001.66
2022-03-31 20:59:00,,0816.6,4.99,0.00,26.6,26.1,00.0,35.5,28.5,06.8,0000.0,0010.88,0003.28,0001.66
